Weather History for Cork, Ireland

Change the Weather History Date:

Tuesday, August 6, 2013

  Actual Average Record
Temperature  
Mean Temperature 58 °F -  
Max Temperature 64 °F 64 °F 77 °F (2003)
Min Temperature 51 °F 51 °F 48 °F (2012)
Degree Days  
Heating Degree Days 8    
Growing Degree Days 8 (Base 50)    
Moisture  
Dew Point 53 °F    
Average Humidity 83    
Maximum Humidity 100    
Minimum Humidity 58    
Precipitation  
Precipitation 0.00 in 0.12 in - ()
Sea Level Pressure  
Sea Level Pressure 29.97 in    
Wind  
Wind Speed 6 mph ()    
Max Wind Speed 14 mph    
Max Gust Speed -    
Visibility 6.7 miles    
Events Rain    
Averages and records for this station are not official NWS values.
T = Trace of Precipitation, MM = Missing Value Source: Averaged Metar Reports

Daily Weather History Graph

Daily Weather History Graph

Search for Another Location

Airport:

Trip Planner

Search our weather history database for the weather conditions in past years. The results will help you decide how hot, cold, wet, or windy it might be!

Date:

Astronomy

Aug. 06, 2013 Rise Set
Actual Time 6:04 AM IST 9:14 PM IST
Civil Twilight 5:24 AM IST 9:53 PM IST
Nautical Twilight 4:31 AM IST 10:46 PM IST
Astronomical Twilight 3:21 AM IST 11:54 PM IST
Moon 5:48 AM IST (8/6) 8:31 PM IST (8/6)
Length of Visible Light 16h 29m
Length of Day
15h 10m
Waning Crescent, 0% of the Moon is Illuminated
Aug 6
Waning Crescent
Aug 6
New
Aug 14
First Quarter
Aug 21
Full
Aug 28
Last Quarter

Hourly Weather History & Observations

Time (IST) Temp. Dew Point Humidity Pressure Visibility Wind Dir Wind Speed Gust Speed Precip Events Conditions
12:00 AM 55.4 °F 50.0 °F 82% 30.04 in 6.2 mi WNW 5.8 mph - N/A   Mostly Cloudy
12:30 AM 55.4 °F 50.0 °F 82% 30.04 in 6.2 mi WNW 4.6 mph - N/A   Mostly Cloudy
1:00 AM 55 °F 50 °F 78% 30.04 in 19 mi NW 4.5 mph - -   Mostly Cloudy
1:00 AM 55.4 °F 50.0 °F 82% 30.04 in 6.2 mi NW 3.5 mph - N/A   Mostly Cloudy
1:30 AM 55.4 °F 50.0 °F 82% 30.04 in 6.2 mi WNW 4.6 mph - N/A   Mostly Cloudy
2:00 AM 55.4 °F 51.8 °F 88% 30.01 in 6.2 mi West 4.6 mph - N/A   Mostly Cloudy
2:30 AM 55.4 °F 50.0 °F 82% 30.01 in 6.2 mi West 3.5 mph - N/A   Mostly Cloudy
3:00 AM 55.4 °F 50.0 °F 82% 30.01 in 6.2 mi West 3.5 mph - N/A   Mostly Cloudy
3:30 AM 53.6 °F 50.0 °F 88% 30.01 in 6.2 mi South 1.2 mph - N/A   Overcast
4:00 AM 53.6 °F 51.8 °F 94% 30.01 in 6.2 mi Variable 3.5 mph - N/A   Overcast
4:30 AM 53.6 °F 51.8 °F 94% 30.01 in 6.2 mi SW 4.6 mph - N/A   Overcast
5:00 AM 53.6 °F 51.8 °F 94% 30.01 in 6.2 mi SSW 3.5 mph - N/A   Mostly Cloudy
5:30 AM 51.8 °F 50.0 °F 94% 30.01 in 6.2 mi SW 3.5 mph - N/A   Scattered Clouds
6:00 AM 51.8 °F 50.0 °F 94% 30.01 in 6.2 mi Variable 3.5 mph - N/A   Mostly Cloudy
6:30 AM 51.8 °F 50.0 °F 94% 30.01 in 6.2 mi Variable 3.5 mph - N/A   Scattered Clouds
7:00 AM 53 °F 52 °F 96% 30.02 in 16 mi SSW 4.5 mph - -   Mostly Cloudy
7:00 AM 53.6 °F 51.8 °F 94% 30.01 in 6.2 mi SSW 3.5 mph - N/A   Mostly Cloudy
7:30 AM 55.4 °F 53.6 °F 94% 30.01 in 6.2 mi West 8.1 mph - N/A   Mostly Cloudy
8:00 AM 55.4 °F 53.6 °F 94% 30.01 in 6.2 mi WNW 5.8 mph - N/A   Mostly Cloudy
8:30 AM 57.2 °F 53.6 °F 88% 30.01 in 6.2 mi NW 2.3 mph - N/A   Mostly Cloudy
9:00 AM 59.0 °F 53.6 °F 82% 30.01 in 6.2 mi SSW 4.6 mph - N/A   Mostly Cloudy
9:30 AM 59.0 °F 53.6 °F 82% 30.01 in 6.2 mi South 4.6 mph - N/A   Mostly Cloudy
10:00 AM 59.0 °F 53.6 °F 82% 29.98 in 6.2 mi SSW 6.9 mph - N/A   Mostly Cloudy
10:30 AM 60.8 °F 53.6 °F 77% 29.98 in 6.2 mi SSW 9.2 mph - N/A   Mostly Cloudy
11:00 AM 60.8 °F 53.6 °F 77% 29.98 in 6.2 mi SSW 9.2 mph - N/A   Mostly Cloudy
11:30 AM 60.8 °F 53.6 °F 77% 29.98 in 6.2 mi SSW 9.2 mph - N/A   Mostly Cloudy
12:00 PM 62.6 °F 53.6 °F 72% 29.98 in 6.2 mi SSW 11.5 mph - N/A   Mostly Cloudy
12:30 PM 64.4 °F 55.4 °F 73% 29.98 in 6.2 mi SSW 13.8 mph - N/A   Mostly Cloudy
1:00 PM 64 °F 53 °F 58% 29.97 in 28 mi SSW 13.4 mph - -   Mostly Cloudy
1:00 PM 64.4 °F 53.6 °F 68% 29.98 in 6.2 mi SSW 13.8 mph - N/A   Mostly Cloudy
1:30 PM 64.4 °F 53.6 °F 68% 29.95 in 6.2 mi SSW 12.7 mph - N/A   Mostly Cloudy
2:00 PM 62.6 °F 55.4 °F 77% 29.95 in 6.2 mi SSW 13.8 mph - N/A Rain Light Rain Showers
2:30 PM 60.8 °F 53.6 °F 77% 29.95 in 6.2 mi South 12.7 mph - N/A   Mostly Cloudy
3:00 PM 60.8 °F 53.6 °F 77% 29.95 in 6.2 mi South 8.1 mph - N/A   Mostly Cloudy
3:30 PM 62.6 °F 50.0 °F 63% 29.95 in 6.2 mi South 11.5 mph - N/A   Scattered Clouds
4:00 PM 60.8 °F 53.6 °F 77% 29.92 in 6.2 mi South 10.4 mph - N/A   Scattered Clouds
4:30 PM 60.8 °F 53.6 °F 77% 29.92 in 6.2 mi South 11.5 mph - N/A   Mostly Cloudy
5:00 PM 59.0 °F 53.6 °F 82% 29.92 in 6.2 mi South 8.1 mph - N/A   Mostly Cloudy
5:30 PM 60.8 °F 55.4 °F 82% 29.92 in 6.2 mi South 9.2 mph - N/A   Mostly Cloudy
6:00 PM 60.8 °F 55.4 °F 82% 29.92 in 6.2 mi South 10.4 mph - N/A   Mostly Cloudy
6:30 PM 60.8 °F 51.8 °F 72% 29.92 in 6.2 mi South 10.4 mph - N/A   Scattered Clouds
7:00 PM 60 °F 53 °F 70% 29.91 in 28 mi South 11.2 mph - -   Partly Cloudy
7:00 PM 60.8 °F 53.6 °F 77% 29.92 in 6.2 mi South 11.5 mph - N/A   Mostly Cloudy
7:30 PM 60.8 °F 53.6 °F 77% 29.92 in 6.2 mi South 10.4 mph - N/A   Mostly Cloudy
8:00 PM 59.0 °F 53.6 °F 82% 29.89 in 6.2 mi South 11.5 mph - N/A   Scattered Clouds
8:30 PM 59.0 °F 55.4 °F 88% 29.89 in 6.2 mi SSE 9.2 mph - N/A   Mostly Cloudy
9:00 PM 57.2 °F 55.4 °F 94% 29.89 in 6.2 mi SSE 8.1 mph - N/A   Mostly Cloudy
9:30 PM 57.2 °F 55.4 °F 94% 29.89 in 6.2 mi SE 8.1 mph - N/A   Scattered Clouds
10:00 PM 55.4 °F 53.6 °F 94% 29.89 in 6.2 mi SSE 9.2 mph - N/A   Scattered Clouds
10:30 PM 55.4 °F 53.6 °F 94% 29.89 in 6.2 mi SSE 6.9 mph - N/A   Mostly Cloudy
11:00 PM 53.6 °F 53.6 °F 100% 29.89 in 6.2 mi SE 8.1 mph - N/A   Scattered Clouds
11:30 PM 53.6 °F 51.8 °F 94% 29.89 in 6.2 mi SE 5.8 mph - N/A   Mostly Cloudy